Time,TemperatureF,DewpointF,PressureIn,WindDirection,WindDirectionDegrees,WindSpeedMPH,WindSpeedGustMPH,Humidity,HourlyPrecipIn,Conditions,Clouds,dailyrainin,SoftwareType,DateUTC
2013-11-27 00:01:00,42.8,42.5,29.80,SSE,150,0.0,1.0,99,0.07,,,0.00,WeatherCatV1.02B3,2013-11-27 05:01:00,
2013-11-27 00:02:00,42.9,42.6,29.80,SSE,150,0.0,1.0,99,0.07,,,0.00,WeatherCatV1.02B3,2013-11-27 05:02:00,
2013-11-27 00:07:00,43.3,43.0,29.79,SE,131,0.0,2.0,99,0.12,,,0.01,WeatherCatV1.02B3,2013-11-27 05:07:00,
2013-11-27 00:12:00,43.7,43.7,29.78,SW,220,0.0,3.0,100,0.25,,,0.03,WeatherCatV1.02B3,2013-11-27 05:12:00,
2013-11-27 00:17:00,44.0,43.7,29.77,South,173,0.0,1.0,99,0.18,,,0.05,WeatherCatV1.02B3,2013-11-27 05:17:00,
2013-11-27 00:22:00,44.2,43.9,29.75,South,177,1.0,1.0,99,0.17,,,0.06,WeatherCatV1.02B3,2013-11-27 05:22:00,
2013-11-27 00:27:00,44.3,44.3,29.74,East,84,0.0,1.0,100,0.17,,,0.07,WeatherCatV1.02B3,2013-11-27 05:27:00,
2013-11-27 00:32:00,44.6,44.6,29.73,South,181,2.0,2.0,100,0.17,,,0.09,WeatherCatV1.02B3,2013-11-27 05:32:00,
2013-11-27 00:37:00,44.8,44.8,29.73,South,178,1.0,2.0,100,0.09,,,0.09,WeatherCatV1.02B3,2013-11-27 05:37:00,
2013-11-27 00:42:00,45.0,45.0,29.73,South,177,0.0,0.0,100,0.09,,,0.10,WeatherCatV1.02B3,2013-11-27 05:42:00,
2013-11-27 00:47:00,45.2,45.2,29.73,South,190,2.0,3.0,100,0.08,,,0.11,WeatherCatV1.02B3,2013-11-27 05:47:00,
2013-11-27 00:52:00,45.4,45.4,29.72,South,183,1.0,1.0,100,0.24,,,0.13,WeatherCatV1.02B3,2013-11-27 05:52:00,
2013-11-27 00:57:00,45.5,45.5,29.70,SSE,148,0.0,1.0,100,0.32,,,0.16,WeatherCatV1.02B3,2013-11-27 05:57:00,
2013-11-27 01:02:00,45.6,45.6,29.70,SE,146,0.0,2.0,100,0.29,,,0.18,WeatherCatV1.02B3,2013-11-27 06:02:00,
2013-11-27 01:07:00,45.8,45.8,29.68,SE,146,0.0,0.0,100,0.48,,,0.21,WeatherCatV1.02B3,2013-11-27 06:07:00,
2013-11-27 01:12:00,45.9,45.9,29.68,SE,146,0.0,2.0,100,0.21,,,0.23,WeatherCatV1.02B3,2013-11-27 06:12:00,
2013-11-27 01:17:00,46.1,46.1,29.68,SE,146,0.0,0.0,100,0.19,,,0.24,WeatherCatV1.02B3,2013-11-27 06:17:00,
2013-11-27 01:22:00,46.3,46.3,29.68,SE,146,0.0,0.0,100,0.26,,,0.26,WeatherCatV1.02B3,2013-11-27 06:22:00,
2013-11-27 01:27:00,46.6,46.6,29.67,SE,146,1.0,2.0,100,0.17,,,0.27,WeatherCatV1.02B3,2013-11-27 06:27:00,
2013-11-27 01:32:00,47.1,47.1,29.67,WSW,256,0.0,1.0,100,0.28,,,0.29,WeatherCatV1.02B3,2013-11-27 06:32:00,
2013-11-27 01:37:00,47.7,47.7,29.66,WSW,256,0.0,1.0,100,0.32,,,0.32,WeatherCatV1.02B3,2013-11-27 06:37:00,
2013-11-27 01:42:00,48.0,48.0,29.66,WSW,256,0.0,1.0,100,0.38,,,0.34,WeatherCatV1.02B3,2013-11-27 06:42:00,
2013-11-27 01:47:00,48.4,48.4,29.65,WSW,256,0.0,0.0,100,0.36,,,0.36,WeatherCatV1.02B3,2013-11-27 06:47:00,
2013-11-27 01:52:00,48.8,48.8,29.64,East,98,0.0,2.0,100,0.31,,,0.39,WeatherCatV1.02B3,2013-11-27 06:52:00,
2013-11-27 01:57:00,49.2,49.2,29.63,East,100,0.0,2.0,100,0.25,,,0.41,WeatherCatV1.02B3,2013-11-27 06:57:00,
2013-11-27 02:02:00,49.9,49.9,29.62,WNW,290,2.0,5.0,100,0.21,,,0.43,WeatherCatV1.02B3,2013-11-27 07:02:00,
2013-11-27 02:07:00,51.2,51.2,29.62,West,266,0.0,9.0,100,0.14,,,0.44,WeatherCatV1.02B3,2013-11-27 07:07:00,
2013-11-27 02:12:00,52.6,52.6,29.60,WNW,290,2.0,6.0,100,0.15,,,0.46,WeatherCatV1.02B3,2013-11-27 07:12:00,
2013-11-27 02:17:00,53.8,53.8,29.60,WSW,254,1.0,8.0,100,0.42,,,0.49,WeatherCatV1.02B3,2013-11-27 07:17:00,
2013-11-27 02:22:00,54.7,54.7,29.58,WSW,255,9.0,9.0,100,0.34,,,0.52,WeatherCatV1.02B3,2013-11-27 07:22:00,
2013-11-27 02:27:00,55.3,55.3,29.58,SSW,210,3.0,6.0,100,0.23,,,0.53,WeatherCatV1.02B3,2013-11-27 07:27:00,
2013-11-27 02:32:00,55.5,55.5,29.56,SSW,200,4.0,6.0,100,0.18,,,0.55,WeatherCatV1.02B3,2013-11-27 07:32:00,
2013-11-27 02:37:00,55.6,55.6,29.54,SE,144,0.0,2.0,100,0.46,,,0.58,WeatherCatV1.02B3,2013-11-27 07:37:00,
2013-11-27 02:42:00,55.7,55.7,29.53,SW,219,2.0,5.0,100,0.28,,,0.60,WeatherCatV1.02B3,2013-11-27 07:42:00,
2013-11-27 02:47:00,55.9,55.9,29.53,SW,223,2.0,7.0,100,0.23,,,0.63,WeatherCatV1.02B3,2013-11-27 07:47:00,
2013-11-27 02:52:00,56.1,56.1,29.53,WSW,243,8.0,8.0,100,0.19,,,0.64,WeatherCatV1.02B3,2013-11-27 07:52:00,
2013-11-27 02:57:00,56.4,56.4,29.52,WNW,290,1.0,9.0,100,0.38,,,0.66,WeatherCatV1.02B3,2013-11-27 07:57:00,
2013-11-27 03:02:00,56.8,56.8,29.51,SW,229,2.0,6.0,100,0.52,,,0.70,WeatherCatV1.02B3,2013-11-27 08:02:00,
2013-11-27 03:07:00,57.0,57.0,29.49,SW,221,2.0,3.0,100,0.32,,,0.73,WeatherCatV1.02B3,2013-11-27 08:07:00,
2013-11-27 03:12:00,57.2,57.2,29.48,WSW,246,1.0,4.0,100,0.36,,,0.76,WeatherCatV1.02B3,2013-11-27 08:12:00,
2013-11-27 03:17:00,57.5,57.5,29.48,SW,236,5.0,8.0,100,0.29,,,0.78,WeatherCatV1.02B3,2013-11-27 08:17:00,
2013-11-27 03:22:00,57.8,57.8,29.48,NNE,28,0.0,1.0,100,0.21,,,0.80,WeatherCatV1.02B3,2013-11-27 08:22:00,
2013-11-27 03:27:00,58.0,58.0,29.48,ENE,73,3.0,3.0,100,0.13,,,0.81,WeatherCatV1.02B3,2013-11-27 08:27:00,
2013-11-27 03:32:00,58.4,58.4,29.48,WSW,239,2.0,6.0,100,0.23,,,0.84,WeatherCatV1.02B3,2013-11-27 08:32:00,
2013-11-27 03:37:00,58.7,58.7,29.47,WSW,255,2.0,4.0,100,0.48,,,0.87,WeatherCatV1.02B3,2013-11-27 08:37:00,
2013-11-27 03:42:00,58.8,58.8,29.47,West,275,1.0,8.0,100,0.30,,,0.90,WeatherCatV1.02B3,2013-11-27 08:42:00,
2013-11-27 03:47:00,58.9,58.9,29.47,WSW,256,1.0,9.0,100,0.16,,,0.92,WeatherCatV1.02B3,2013-11-27 08:47:00,
2013-11-27 03:52:00,58.9,58.9,29.46,WNW,297,3.0,3.0,100,0.16,,,0.93,WeatherCatV1.02B3,2013-11-27 08:52:00,
2013-11-27 03:57:00,59.0,59.0,29.45,North,4,2.0,5.0,100,0.23,,,0.95,WeatherCatV1.02B3,2013-11-27 08:57:00,
2013-11-27 04:02:00,59.2,59.2,29.44,WNW,285,3.0,9.0,100,0.83,,,1.01,WeatherCatV1.02B3,2013-11-27 09:02:00,
2013-11-27 04:07:00,59.1,59.1,29.43,WNW,290,1.0,3.0,100,0.49,,,1.04,WeatherCatV1.02B3,2013-11-27 09:07:00,
2013-11-27 04:12:00,59.1,59.1,29.42,SW,229,1.0,6.0,100,0.18,,,1.06,WeatherCatV1.02B3,2013-11-27 09:12:00,
2013-11-27 04:17:00,59.1,59.1,29.43,NW,307,2.0,4.0,100,0.07,,,1.06,WeatherCatV1.02B3,2013-11-27 09:17:00,
2013-11-27 04:22:00,59.2,59.2,29.42,NE,46,3.0,5.0,100,0.20,,,1.08,WeatherCatV1.02B3,2013-11-27 09:22:00,
2013-11-27 04:27:00,59.2,59.2,29.42,NW,315,2.0,9.0,100,0.20,,,1.10,WeatherCatV1.02B3,2013-11-27 09:27:00,
2013-11-27 04:32:00,59.1,59.1,29.41,NE,42,4.0,4.0,100,0.27,,,1.12,WeatherCatV1.02B3,2013-11-27 09:32:00,
2013-11-27 04:37:00,59.0,59.0,29.41,West,280,2.0,5.0,100,0.17,,,1.13,WeatherCatV1.02B3,2013-11-27 09:37:00,
2013-11-27 04:42:00,59.0,59.0,29.41,West,273,4.0,4.0,100,0.11,,,1.14,WeatherCatV1.02B3,2013-11-27 09:42:00,
2013-11-27 04:47:00,59.2,59.2,29.40,WNW,290,4.0,6.0,100,0.08,,,1.14,WeatherCatV1.02B3,2013-11-27 09:47:00,
2013-11-27 04:52:00,59.4,59.4,29.40,East,80,2.0,7.0,100,0.05,,,1.14,WeatherCatV1.02B3,2013-11-27 09:52:00,
2013-11-27 04:57:00,59.6,59.6,29.41,ENE,59,2.0,6.0,100,0.00,,,1.14,WeatherCatV1.02B3,2013-11-27 09:57:00,
2013-11-27 05:02:00,59.7,59.7,29.41,West,263,5.0,5.0,100,0.00,,,1.15,WeatherCatV1.02B3,2013-11-27 10:02:00,
2013-11-27 05:07:00,59.7,59.7,29.42,NNW,336,1.0,2.0,100,0.09,,,1.16,WeatherCatV1.02B3,2013-11-27 10:07:00,
2013-11-27 05:12:00,59.5,59.5,29.42,WNW,294,2.0,3.0,100,0.94,,,1.22,WeatherCatV1.02B3,2013-11-27 10:12:00,
2013-11-27 05:17:00,59.3,59.0,29.42,WSW,240,1.0,4.0,99,0.76,,,1.28,WeatherCatV1.02B3,2013-11-27 10:17:00,
2013-11-27 05:22:00,59.2,58.9,29.41,WSW,243,0.0,0.0,99,0.46,,,1.34,WeatherCatV1.02B3,2013-11-27 10:22:00,
2013-11-27 05:27:00,59.1,58.8,29.41,WSW,243,0.0,1.0,99,0.27,,,1.36,WeatherCatV1.02B3,2013-11-27 10:27:00,
2013-11-27 05:32:00,59.1,58.8,29.41,WSW,243,0.0,0.0,99,0.15,,,1.37,WeatherCatV1.02B3,2013-11-27 10:32:00,
2013-11-27 05:37:00,59.0,58.7,29.41,WSW,243,0.0,0.0,99,0.12,,,1.38,WeatherCatV1.02B3,2013-11-27 10:37:00,
2013-11-27 05:42:00,59.0,59.0,29.41,WSW,243,0.0,0.0,100,0.18,,,1.40,WeatherCatV1.02B3,2013-11-27 10:42:00,
2013-11-27 05:47:00,58.9,58.9,29.40,WSW,243,0.0,0.0,100,0.18,,,1.41,WeatherCatV1.02B3,2013-11-27 10:47:00,
2013-11-27 05:52:00,58.9,58.9,29.39,WSW,243,0.0,0.0,100,0.11,,,1.42,WeatherCatV1.02B3,2013-11-27 10:52:00,
2013-11-27 05:57:00,58.8,58.8,29.39,WSW,243,0.0,0.0,100,0.08,,,1.42,WeatherCatV1.02B3,2013-11-27 10:57:00,
2013-11-27 06:02:00,58.9,58.9,29.39,WSW,243,0.0,0.0,100,0.05,,,1.43,WeatherCatV1.02B3,2013-11-27 11:02:00,
2013-11-27 06:07:00,58.9,58.9,29.39,WSW,243,0.0,1.0,100,0.05,,,1.43,WeatherCatV1.02B3,2013-11-27 11:07:00,
2013-11-27 06:12:00,59.0,59.0,29.39,WSW,243,0.0,1.0,100,0.07,,,1.44,WeatherCatV1.02B3,2013-11-27 11:12:00,
2013-11-27 06:17:00,59.1,59.1,29.39,WSW,243,0.0,1.0,100,0.07,,,1.44,WeatherCatV1.02B3,2013-11-27 11:17:00,
2013-11-27 06:22:00,59.1,59.1,29.39,WSW,249,1.0,1.0,100,0.05,,,1.45,WeatherCatV1.02B3,2013-11-27 11:22:00,
2013-11-27 06:27:00,59.3,59.3,29.39,WSW,249,0.0,0.0,100,0.11,,,1.46,WeatherCatV1.02B3,2013-11-27 11:27:00,
2013-11-27 06:32:00,59.3,59.3,29.39,WSW,249,0.0,1.0,100,0.11,,,1.46,WeatherCatV1.02B3,2013-11-27 11:32:00,
2013-11-27 06:37:00,59.4,59.4,29.39,WSW,249,0.0,0.0,100,0.11,,,1.47,WeatherCatV1.02B3,2013-11-27 11:37:00,
2013-11-27 06:42:00,59.4,59.4,29.39,WSW,249,0.0,0.0,100,0.36,,,1.49,WeatherCatV1.02B3,2013-11-27 11:42:00,
2013-11-27 06:47:00,59.5,59.5,29.38,NNE,25,1.0,2.0,100,0.14,,,1.50,WeatherCatV1.02B3,2013-11-27 11:47:00,
2013-11-27 06:52:00,59.6,59.6,29.38,NNE,25,0.0,2.0,100,0.06,,,1.50,WeatherCatV1.02B3,2013-11-27 11:52:00,
2013-11-27 06:57:00,59.7,59.7,29.38,NW,319,0.0,1.0,100,0.06,,,1.51,WeatherCatV1.02B3,2013-11-27 11:57:00,
2013-11-27 07:02:00,59.7,59.7,29.38,NNW,344,0.0,2.0,100,0.06,,,1.51,WeatherCatV1.02B3,2013-11-27 12:02:00,
2013-11-27 07:07:00,59.7,59.7,29.38,NNW,344,0.0,0.0,100,0.04,,,1.51,WeatherCatV1.02B3,2013-11-27 12:07:00,
2013-11-27 07:12:00,59.6,59.6,29.39,NNW,344,0.0,1.0,100,0.00,,,1.51,WeatherCatV1.02B3,2013-11-27 12:12:00,
2013-11-27 07:17:00,59.7,59.7,29.39,NNW,345,0.0,1.0,100,0.00,,,1.51,WeatherCatV1.02B3,2013-11-27 12:17:00,
2013-11-27 07:22:00,59.7,59.7,29.38,NNW,345,0.0,0.0,100,0.00,,,1.52,WeatherCatV1.02B3,2013-11-27 12:22:00,
2013-11-27 07:27:00,59.7,59.7,29.38,North,0,0.0,1.0,100,0.00,,,1.52,WeatherCatV1.02B3,2013-11-27 12:27:00,
2013-11-27 07:32:00,59.7,59.7,29.37,North,0,0.0,0.0,100,0.06,,,1.53,WeatherCatV1.02B3,2013-11-27 12:32:00,
2013-11-27 07:37:00,59.6,59.6,29.38,North,0,0.0,2.0,100,0.06,,,1.53,WeatherCatV1.02B3,2013-11-27 12:37:00,
2013-11-27 07:42:00,59.6,59.6,29.39,North,0,1.0,1.0,100,0.04,,,1.53,WeatherCatV1.02B3,2013-11-27 12:42:00,
2013-11-27 07:47:00,59.5,59.5,29.39,North,0,0.0,2.0,100,0.00,,,1.53,WeatherCatV1.02B3,2013-11-27 12:47:00,
2013-11-27 07:52:00,59.5,59.5,29.38,North,351,0.0,2.0,100,0.00,,,1.54,WeatherCatV1.02B3,2013-11-27 12:52:00,
2013-11-27 07:57:00,59.4,59.4,29.38,North,351,0.0,0.0,100,0.00,,,1.54,WeatherCatV1.02B3,2013-11-27 12:57:00,
2013-11-27 08:02:00,59.3,59.3,29.39,North,350,0.0,2.0,100,0.00,,,1.54,WeatherCatV1.02B3,2013-11-27 13:02:00,
2013-11-27 08:07:00,59.2,59.2,29.38,WNW,290,1.0,1.0,100,0.00,,,1.54,WeatherCatV1.02B3,2013-11-27 13:07:00,
2013-11-27 08:12:00,59.1,59.1,29.38,North,6,0.0,1.0,100,0.00,,,1.55,WeatherCatV1.02B3,2013-11-27 13:12:00,
2013-11-27 08:17:00,58.9,58.9,29.38,WNW,285,0.0,1.0,100,0.00,,,1.55,WeatherCatV1.02B3,2013-11-27 13:17:00,
2013-11-27 08:22:00,58.7,58.7,29.39,SW,231,0.0,4.0,100,0.00,,,1.55,WeatherCatV1.02B3,2013-11-27 13:22:00,
2013-11-27 08:27:00,57.8,57.2,29.39,WSW,242,0.0,3.0,98,0.00,,,1.55,WeatherCatV1.02B3,2013-11-27 13:27:00,
2013-11-27 08:32:00,56.6,55.8,29.39,ENE,77,0.0,1.0,97,0.00,,,1.55,WeatherCatV1.02B3,2013-11-27 13:32:00,
2013-11-27 08:37:00,55.9,55.1,29.40,SSW,198,2.0,3.0,97,0.00,,,1.55,WeatherCatV1.02B3,2013-11-27 13:37:00,
2013-11-27 08:42:00,55.0,53.9,29.41,WSW,237,0.0,1.0,96,0.00,,,1.55,WeatherCatV1.02B3,2013-11-27 13:42:00,
2013-11-27 08:47:00,54.2,53.1,29.42,WSW,237,0.0,0.0,96,0.00,,,1.55,WeatherCatV1.02B3,2013-11-27 13:47:00,
2013-11-27 08:52:00,53.5,52.4,29.42,NNW,327,1.0,2.0,96,0.00,,,1.55,WeatherCatV1.02B3,2013-11-27 13:52:00,
2013-11-27 08:57:00,52.6,51.5,29.43,NNW,344,0.0,2.0,96,0.00,,,1.55,WeatherCatV1.02B3,2013-11-27 13:57:00,
2013-11-27 09:02:00,51.9,50.8,29.43,NNW,344,0.0,1.0,96,0.15,,,1.57,WeatherCatV1.02B3,2013-11-27 14:02:00,
2013-11-27 09:07:00,51.4,50.3,29.44,North,352,2.0,2.0,96,0.10,,,1.57,WeatherCatV1.02B3,2013-11-27 14:07:00,
2013-11-27 09:12:00,50.9,50.1,29.43,North,354,0.0,2.0,97,0.10,,,1.58,WeatherCatV1.02B3,2013-11-27 14:12:00,
2013-11-27 09:17:00,50.6,49.8,29.42,North,352,0.0,2.0,97,0.08,,,1.59,WeatherCatV1.02B3,2013-11-27 14:17:00,
2013-11-27 09:22:00,50.3,49.5,29.39,South,186,0.0,2.0,97,0.08,,,1.59,WeatherCatV1.02B3,2013-11-27 14:22:00,
2013-11-27 09:27:00,49.9,49.1,29.39,ENE,63,0.0,1.0,97,0.05,,,1.60,WeatherCatV1.02B3,2013-11-27 14:27:00,
2013-11-27 09:32:00,49.6,48.8,29.40,ENE,63,0.0,1.0,97,0.05,,,1.60,WeatherCatV1.02B3,2013-11-27 14:32:00,
2013-11-27 09:37:00,49.4,48.6,29.41,ENE,63,0.0,0.0,97,0.05,,,1.60,WeatherCatV1.02B3,2013-11-27 14:37:00,
2013-11-27 09:42:00,49.4,48.9,29.41,ENE,63,0.0,1.0,98,0.06,,,1.61,WeatherCatV1.02B3,2013-11-27 14:42:00,
2013-11-27 09:47:00,49.4,48.9,29.40,ENE,63,0.0,0.0,98,0.07,,,1.62,WeatherCatV1.02B3,2013-11-27 14:47:00,
2013-11-27 09:52:00,49.2,48.7,29.40,SE,141,0.0,2.0,98,0.07,,,1.62,WeatherCatV1.02B3,2013-11-27 14:52:00,
2013-11-27 09:57:00,48.8,48.0,29.39,SW,225,0.0,2.0,97,0.05,,,1.63,WeatherCatV1.02B3,2013-11-27 14:57:00,
2013-11-27 10:02:00,48.3,47.5,29.41,ENE,66,2.0,3.0,97,0.05,,,1.63,WeatherCatV1.02B3,2013-11-27 15:02:00,
2013-11-27 10:07:00,48.0,47.2,29.42,SE,143,3.0,4.0,97,0.08,,,1.64,WeatherCatV1.02B3,2013-11-27 15:07:00,
2013-11-27 10:12:00,47.7,46.9,29.41,SSW,206,2.0,2.0,97,0.08,,,1.64,WeatherCatV1.02B3,2013-11-27 15:12:00,
2013-11-27 10:17:00,47.5,46.7,29.41,SSE,156,0.0,4.0,97,0.07,,,1.65,WeatherCatV1.02B3,2013-11-27 15:17:00,
2013-11-27 10:22:00,47.3,46.5,29.43,South,175,0.0,2.0,97,0.07,,,1.65,WeatherCatV1.02B3,2013-11-27 15:22:00,
2013-11-27 10:27:00,47.1,46.3,29.43,East,80,2.0,5.0,97,0.06,,,1.66,WeatherCatV1.02B3,2013-11-27 15:27:00,
2013-11-27 10:32:00,46.8,46.0,29.41,NE,44,0.0,5.0,97,0.06,,,1.66,WeatherCatV1.02B3,2013-11-27 15:32:00,
2013-11-27 10:37:00,46.5,45.4,29.41,ESE,115,0.0,1.0,96,0.04,,,1.66,WeatherCatV1.02B3,2013-11-27 15:37:00,
2013-11-27 10:42:00,46.3,45.2,29.42,SE,138,0.0,3.0,96,0.00,,,1.66,WeatherCatV1.02B3,2013-11-27 15:42:00,
2013-11-27 10:47:00,46.1,45.3,29.41,ESE,111,2.0,2.0,97,0.00,,,1.66,WeatherCatV1.02B3,2013-11-27 15:47:00,
2013-11-27 10:52:00,46.0,45.2,29.41,East,80,1.0,3.0,97,0.00,,,1.66,WeatherCatV1.02B3,2013-11-27 15:52:00,
2013-11-27 10:57:00,45.8,44.7,29.39,SSE,150,0.0,2.0,96,0.00,,,1.67,WeatherCatV1.02B3,2013-11-27 15:57:00,
2013-11-27 11:02:00,45.4,44.3,29.34,South,175,1.0,3.0,96,0.00,,,1.67,WeatherCatV1.02B3,2013-11-27 16:02:00,
2013-11-27 11:07:00,44.9,43.6,29.38,WNW,301,0.0,1.0,95,0.00,,,1.67,WeatherCatV1.02B3,2013-11-27 16:07:00,
2013-11-27 11:12:00,44.7,43.6,29.39,NNW,330,1.0,2.0,96,0.00,,,1.67,WeatherCatV1.02B3,2013-11-27 16:12:00,
2013-11-27 11:17:00,44.5,43.2,29.40,ENE,66,1.0,2.0,95,0.00,,,1.67,WeatherCatV1.02B3,2013-11-27 16:17:00,
2013-11-27 11:22:00,44.2,43.1,29.40,WSW,256,1.0,2.0,96,0.00,,,1.67,WeatherCatV1.02B3,2013-11-27 16:22:00,
2013-11-27 11:27:00,43.9,42.3,29.39,WNW,290,0.0,2.0,94,0.00,,,1.67,WeatherCatV1.02B3,2013-11-27 16:27:00,
2013-11-27 11:32:00,43.7,42.4,29.39,WNW,290,0.0,1.0,95,0.00,,,1.67,WeatherCatV1.02B3,2013-11-27 16:32:00,
2013-11-27 11:37:00,43.5,42.2,29.40,North,6,1.0,4.0,95,0.00,,,1.67,WeatherCatV1.02B3,2013-11-27 16:37:00,
2013-11-27 11:42:00,43.4,42.1,29.41,North,352,0.0,1.0,95,0.00,,,1.67,WeatherCatV1.02B3,2013-11-27 16:42:00,
2013-11-27 11:47:00,43.4,42.1,29.40,North,352,0.0,1.0,95,0.00,,,1.67,WeatherCatV1.02B3,2013-11-27 16:47:00,
2013-11-27 11:52:00,43.3,42.0,29.40,NNW,331,0.0,4.0,95,0.00,,,1.67,WeatherCatV1.02B3,2013-11-27 16:52:00,
2013-11-27 11:57:00,43.1,41.5,29.41,NE,51,0.0,2.0,94,0.00,,,1.67,WeatherCatV1.02B3,2013-11-27 16:57:00,
2013-11-27 12:02:00,43.1,41.8,29.40,ENE,67,1.0,2.0,95,0.00,,,1.67,WeatherCatV1.02B3,2013-11-27 17:02:00,
2013-11-27 12:07:00,43.0,41.7,29.38,SW,217,1.0,2.0,95,0.00,,,1.67,WeatherCatV1.02B3,2013-11-27 17:07:00,
2013-11-27 12:12:00,42.8,40.9,29.38,NE,55,1.0,2.0,93,0.00,,,1.67,WeatherCatV1.02B3,2013-11-27 17:12:00,
2013-11-27 12:17:00,42.7,40.5,29.42,NE,43,0.0,2.0,92,0.00,,,1.67,WeatherCatV1.02B3,2013-11-27 17:17:00,
2013-11-27 12:22:00,42.7,41.1,29.41,NE,40,1.0,1.0,94,0.00,,,1.67,WeatherCatV1.02B3,2013-11-27 17:22:00,
2013-11-27 12:27:00,42.7,41.1,29.41,NW,309,0.0,1.0,94,0.00,,,1.67,WeatherCatV1.02B3,2013-11-27 17:27:00,
2013-11-27 12:32:00,42.7,41.1,29.41,NW,307,0.0,1.0,94,0.00,,,1.67,WeatherCatV1.02B3,2013-11-27 17:32:00,
2013-11-27 12:37:00,42.5,40.6,29.40,East,94,0.0,2.0,93,0.00,,,1.67,WeatherCatV1.02B3,2013-11-27 17:37:00,
2013-11-27 12:42:00,42.5,40.6,29.40,East,93,0.0,2.0,93,0.00,,,1.67,WeatherCatV1.02B3,2013-11-27 17:42:00,
2013-11-27 12:47:00,42.4,40.2,29.39,North,1,1.0,2.0,92,0.00,,,1.67,WeatherCatV1.02B3,2013-11-27 17:47:00,
2013-11-27 12:52:00,42.4,40.2,29.39,West,260,3.0,4.0,92,0.00,,,1.67,WeatherCatV1.02B3,2013-11-27 17:52:00,
2013-11-27 12:57:00,42.3,40.1,29.39,NNW,340,1.0,3.0,92,0.00,,,1.67,WeatherCatV1.02B3,2013-11-27 17:57:00,
2013-11-27 13:02:00,42.3,40.1,29.39,West,275,0.0,1.0,92,0.00,,,1.67,WeatherCatV1.02B3,2013-11-27 18:02:00,
2013-11-27 13:07:00,42.2,40.0,29.39,SE,134,2.0,2.0,92,0.00,,,1.67,WeatherCatV1.02B3,2013-11-27 18:07:00,
2013-11-27 13:12:00,42.1,39.7,29.38,SW,223,0.0,4.0,91,0.00,,,1.67,WeatherCatV1.02B3,2013-11-27 18:12:00,
2013-11-27 13:17:00,42.0,39.6,29.38,NNE,32,0.0,4.0,91,0.00,,,1.67,WeatherCatV1.02B3,2013-11-27 18:17:00,
2013-11-27 13:22:00,41.9,39.5,29.39,ESE,113,3.0,3.0,91,0.00,,,1.67,WeatherCatV1.02B3,2013-11-27 18:22:00,
2013-11-27 13:27:00,41.7,39.0,29.39,West,265,1.0,1.0,90,0.00,,,1.67,WeatherCatV1.02B3,2013-11-27 18:27:00,
2013-11-27 13:32:00,41.7,39.0,29.38,ESE,114,0.0,1.0,90,0.00,,,1.67,WeatherCatV1.02B3,2013-11-27 18:32:00,
2013-11-27 13:37:00,41.6,39.2,29.39,SE,127,0.0,2.0,91,0.00,,,1.67,WeatherCatV1.02B3,2013-11-27 18:37:00,
2013-11-27 13:42:00,41.5,39.1,29.42,WNW,294,0.0,1.0,91,0.00,,,1.67,WeatherCatV1.02B3,2013-11-27 18:42:00,
2013-11-27 13:47:00,41.5,39.4,29.43,NNW,339,0.0,2.0,92,0.00,,,1.68,WeatherCatV1.02B3,2013-11-27 18:47:00,
2013-11-27 13:52:00,41.4,39.3,29.42,ENE,57,0.0,4.0,92,0.00,,,1.68,WeatherCatV1.02B3,2013-11-27 18:52:00,
2013-11-27 13:56:00,41.3,39.2,29.42,South,184,1.0,2.0,92,0.00,,,1.68,WeatherCatV1.02B3,2013-11-27 18:56:00,
2013-11-27 14:01:00,41.1,39.0,29.40,WSW,244,2.0,3.0,92,0.05,,,1.69,WeatherCatV1.02B3,2013-11-27 19:01:00,
2013-11-27 14:06:00,40.7,38.6,29.38,NNE,31,2.0,8.0,92,0.05,,,1.69,WeatherCatV1.02B3,2013-11-27 19:06:00,
2013-11-27 14:11:00,40.6,38.7,29.38,NE,45,0.0,5.0,93,0.05,,,1.69,WeatherCatV1.02B3,2013-11-27 19:11:00,
2013-11-27 14:16:00,40.4,38.5,29.38,SSE,148,0.0,2.0,93,0.00,,,1.69,WeatherCatV1.02B3,2013-11-27 19:16:00,
2013-11-27 14:21:00,40.3,38.4,29.38,SE,138,3.0,3.0,93,0.00,,,1.69,WeatherCatV1.02B3,2013-11-27 19:21:00,
2013-11-27 14:26:00,40.2,38.3,29.38,ENE,73,0.0,1.0,93,0.00,,,1.70,WeatherCatV1.02B3,2013-11-27 19:26:00,
2013-11-27 14:31:00,40.2,38.6,29.38,WSW,247,2.0,2.0,94,0.00,,,1.70,WeatherCatV1.02B3,2013-11-27 19:31:00,
2013-11-27 14:36:00,40.2,38.6,29.39,NE,55,3.0,4.0,94,0.00,,,1.70,WeatherCatV1.02B3,2013-11-27 19:36:00,
2013-11-27 14:41:00,40.1,38.5,29.39,ESE,109,1.0,2.0,94,0.00,,,1.70,WeatherCatV1.02B3,2013-11-27 19:41:00,
2013-11-27 14:46:00,40.0,38.1,29.39,WSW,256,4.0,4.0,93,0.00,,,1.70,WeatherCatV1.02B3,2013-11-27 19:46:00,
2013-11-27 14:51:00,40.0,38.4,29.37,NW,310,5.0,5.0,94,0.00,,,1.70,WeatherCatV1.02B3,2013-11-27 19:51:00,
2013-11-27 14:56:00,39.9,38.3,29.37,ESE,115,0.0,2.0,94,0.00,,,1.70,WeatherCatV1.02B3,2013-11-27 19:56:00,
2013-11-27 15:01:00,39.9,38.3,29.38,ENE,68,1.0,4.0,94,0.00,,,1.70,WeatherCatV1.02B3,2013-11-27 20:01:00,
2013-11-27 15:06:00,39.9,38.3,29.39,North,359,0.0,2.0,94,0.00,,,1.70,WeatherCatV1.02B3,2013-11-27 20:06:00,
2013-11-27 15:11:00,39.8,38.2,29.39,SSW,200,0.0,5.0,94,0.00,,,1.70,WeatherCatV1.02B3,2013-11-27 20:11:00,
2013-11-27 15:16:00,39.8,38.2,29.39,SSE,163,0.0,1.0,94,0.00,,,1.70,WeatherCatV1.02B3,2013-11-27 20:16:00,
2013-11-27 15:21:00,39.8,38.2,29.41,West,275,1.0,1.0,94,0.00,,,1.70,WeatherCatV1.02B3,2013-11-27 20:21:00,
2013-11-27 15:26:00,39.8,38.2,29.42,NNE,12,0.0,1.0,94,0.00,,,1.70,WeatherCatV1.02B3,2013-11-27 20:26:00,
2013-11-27 15:31:00,39.8,37.9,29.42,East,92,0.0,1.0,93,0.00,,,1.70,WeatherCatV1.02B3,2013-11-27 20:31:00,
2013-11-27 15:36:00,39.7,37.8,29.41,East,93,1.0,2.0,93,0.00,,,1.70,WeatherCatV1.02B3,2013-11-27 20:36:00,
2013-11-27 15:41:00,39.7,37.8,29.40,ENE,63,1.0,2.0,93,0.00,,,1.71,WeatherCatV1.02B3,2013-11-27 20:41:00,
2013-11-27 15:46:00,39.6,37.5,29.41,East,79,0.0,2.0,92,0.00,,,1.71,WeatherCatV1.02B3,2013-11-27 20:46:00,
2013-11-27 15:51:00,39.5,37.4,29.40,East,86,0.0,3.0,92,0.00,,,1.71,WeatherCatV1.02B3,2013-11-27 20:51:00,
2013-11-27 15:56:00,39.5,37.6,29.39,ESE,107,0.0,2.0,93,0.00,,,1.71,WeatherCatV1.02B3,2013-11-27 20:56:00,
2013-11-27 16:01:00,39.3,37.4,29.38,NE,45,1.0,3.0,93,0.00,,,1.71,WeatherCatV1.02B3,2013-11-27 21:01:00,
2013-11-27 16:06:00,39.2,37.1,29.40,South,169,0.0,2.0,92,0.00,,,1.71,WeatherCatV1.02B3,2013-11-27 21:06:00,
2013-11-27 16:11:00,39.2,37.3,29.40,East,88,0.0,2.0,93,0.00,,,1.71,WeatherCatV1.02B3,2013-11-27 21:11:00,
2013-11-27 16:16:00,39.1,37.2,29.40,ENE,78,0.0,1.0,93,0.00,,,1.71,WeatherCatV1.02B3,2013-11-27 21:16:00,
2013-11-27 16:21:00,39.0,37.2,29.39,ENE,60,0.0,0.0,93,0.00,,,1.71,WeatherCatV1.02B3,2013-11-27 21:21:00,
2013-11-27 16:26:00,38.9,37.1,29.40,NE,44,3.0,3.0,93,0.00,,,1.71,WeatherCatV1.02B3,2013-11-27 21:26:00,
2013-11-27 16:31:00,38.8,37.0,29.39,ENE,72,2.0,8.0,93,0.00,,,1.72,WeatherCatV1.02B3,2013-11-27 21:31:00,
2013-11-27 16:36:00,38.7,36.9,29.37,East,98,0.0,3.0,93,0.00,,,1.72,WeatherCatV1.02B3,2013-11-27 21:36:00,
2013-11-27 16:41:00,38.6,36.8,29.36,ENE,69,2.0,4.0,93,0.05,,,1.73,WeatherCatV1.02B3,2013-11-27 21:41:00,
2013-11-27 16:46:00,38.4,36.6,29.37,East,88,4.0,4.0,93,0.05,,,1.73,WeatherCatV1.02B3,2013-11-27 21:46:00,
2013-11-27 16:51:00,38.3,36.5,29.38,North,350,1.0,4.0,93,0.05,,,1.73,WeatherCatV1.02B3,2013-11-27 21:51:00,
2013-11-27 16:56:00,38.2,36.4,29.40,East,101,0.0,12.0,93,0.00,,,1.73,WeatherCatV1.02B3,2013-11-27 21:56:00,
2013-11-27 17:01:00,38.1,36.3,29.42,ESE,119,2.0,6.0,93,0.00,,,1.73,WeatherCatV1.02B3,2013-11-27 22:01:00,
2013-11-27 17:06:00,38.0,36.2,29.42,East,90,1.0,3.0,93,0.00,,,1.73,WeatherCatV1.02B3,2013-11-27 22:06:00,
2013-11-27 17:11:00,38.0,36.2,29.41,SSE,168,0.0,2.0,93,0.00,,,1.73,WeatherCatV1.02B3,2013-11-27 22:11:00,
2013-11-27 17:16:00,37.9,36.1,29.42,NNE,14,1.0,3.0,93,0.00,,,1.73,WeatherCatV1.02B3,2013-11-27 22:16:00,
2013-11-27 17:21:00,37.9,35.8,29.43,SSW,211,3.0,5.0,92,0.00,,,1.73,WeatherCatV1.02B3,2013-11-27 22:21:00,
2013-11-27 17:26:00,37.9,35.8,29.44,NE,46,0.0,6.0,92,0.00,,,1.73,WeatherCatV1.02B3,2013-11-27 22:26:00,
2013-11-27 17:31:00,37.9,35.8,29.43,ENE,64,5.0,5.0,92,0.00,,,1.73,WeatherCatV1.02B3,2013-11-27 22:31:00,
2013-11-27 17:36:00,37.8,35.4,29.44,East,91,2.0,2.0,91,0.00,,,1.73,WeatherCatV1.02B3,2013-11-27 22:36:00,
2013-11-27 17:41:00,37.6,35.5,29.44,East,89,1.0,9.0,92,0.00,,,1.74,WeatherCatV1.02B3,2013-11-27 22:41:00,
2013-11-27 17:46:00,37.4,35.6,29.45,NE,54,2.0,4.0,93,0.00,,,1.74,WeatherCatV1.02B3,2013-11-27 22:46:00,
2013-11-27 17:51:00,37.2,35.4,29.45,South,171,4.0,5.0,93,0.00,,,1.74,WeatherCatV1.02B3,2013-11-27 22:51:00,
2013-11-27 17:56:00,37.1,35.0,29.47,WSW,248,5.0,7.0,92,0.00,,,1.74,WeatherCatV1.02B3,2013-11-27 22:56:00,
2013-11-27 18:01:00,37.0,35.2,29.48,NE,41,2.0,3.0,93,0.00,,,1.74,WeatherCatV1.02B3,2013-11-27 23:01:00,
2013-11-27 18:06:00,37.0,35.2,29.49,NE,36,1.0,4.0,93,0.00,,,1.74,WeatherCatV1.02B3,2013-11-27 23:06:00,
2013-11-27 18:11:00,37.0,35.2,29.50,NE,34,1.0,4.0,93,0.00,,,1.74,WeatherCatV1.02B3,2013-11-27 23:11:00,
2013-11-27 18:16:00,36.9,35.1,29.49,North,359,1.0,1.0,93,0.00,,,1.74,WeatherCatV1.02B3,2013-11-27 23:16:00,
2013-11-27 18:21:00,36.9,35.3,29.50,ENE,58,1.0,2.0,94,0.00,,,1.74,WeatherCatV1.02B3,2013-11-27 23:21:00,
2013-11-27 18:26:00,36.8,35.2,29.50,South,171,6.0,6.0,94,0.00,,,1.74,WeatherCatV1.02B3,2013-11-27 23:26:00,
2013-11-27 18:31:00,36.7,35.1,29.51,North,11,1.0,4.0,94,0.00,,,1.74,WeatherCatV1.02B3,2013-11-27 23:31:00,
2013-11-27 18:36:00,36.6,35.0,29.50,SSE,148,1.0,3.0,94,0.00,,,1.74,WeatherCatV1.02B3,2013-11-27 23:36:00,
2013-11-27 18:41:00,36.6,35.0,29.51,North,357,0.0,2.0,94,0.00,,,1.75,WeatherCatV1.02B3,2013-11-27 23:41:00,
2013-11-27 18:46:00,36.5,34.7,29.51,East,81,2.0,9.0,93,0.00,,,1.75,WeatherCatV1.02B3,2013-11-27 23:46:00,
2013-11-27 18:51:00,36.5,34.7,29.52,SW,224,3.0,3.0,93,0.00,,,1.75,WeatherCatV1.02B3,2013-11-27 23:51:00,
2013-11-27 18:56:00,36.5,34.9,29.52,SW,227,3.0,5.0,94,0.00,,,1.75,WeatherCatV1.02B3,2013-11-27 23:56:00,
2013-11-27 19:01:00,36.5,34.9,29.52,WSW,238,3.0,6.0,94,0.00,,,1.75,WeatherCatV1.02B3,2013-11-28 00:01:00,
2013-11-27 19:06:00,36.6,34.5,29.53,SE,138,0.0,3.0,92,0.00,,,1.75,WeatherCatV1.02B3,2013-11-28 00:06:00,
2013-11-27 19:11:00,36.6,34.5,29.53,SSE,168,2.0,3.0,92,0.00,,,1.75,WeatherCatV1.02B3,2013-11-28 00:11:00,
2013-11-27 19:16:00,36.7,34.3,29.53,SW,217,2.0,6.0,91,0.00,,,1.75,WeatherCatV1.02B3,2013-11-28 00:16:00,
2013-11-27 19:21:00,36.8,34.4,29.53,NE,46,2.0,5.0,91,0.00,,,1.75,WeatherCatV1.02B3,2013-11-28 00:21:00,
2013-11-27 19:26:00,36.8,34.1,29.54,NNE,23,0.0,7.0,90,0.00,,,1.75,WeatherCatV1.02B3,2013-11-28 00:26:00,
2013-11-27 19:31:00,37.0,34.1,29.55,NE,41,1.0,3.0,89,0.00,,,1.75,WeatherCatV1.02B3,2013-11-28 00:31:00,
2013-11-27 19:36:00,37.0,34.1,29.54,ENE,75,1.0,4.0,89,0.00,,,1.75,WeatherCatV1.02B3,2013-11-28 00:36:00,
2013-11-27 19:41:00,37.1,33.6,29.54,NE,37,0.0,3.0,87,0.00,,,1.75,WeatherCatV1.02B3,2013-11-28 00:41:00,
2013-11-27 19:46:00,37.1,33.6,29.54,West,272,1.0,7.0,87,0.00,,,1.75,WeatherCatV1.02B3,2013-11-28 00:46:00,
2013-11-27 19:51:00,37.1,33.6,29.54,ESE,102,0.0,2.0,87,0.00,,,1.75,WeatherCatV1.02B3,2013-11-28 00:51:00,
2013-11-27 19:56:00,37.1,33.3,29.54,East,93,1.0,2.0,86,0.00,,,1.75,WeatherCatV1.02B3,2013-11-28 00:56:00,
2013-11-27 20:01:00,37.1,33.6,29.55,NNE,13,1.0,3.0,87,0.00,,,1.75,WeatherCatV1.02B3,2013-11-28 01:01:00,
2013-11-27 20:06:00,37.1,33.3,29.55,NE,40,0.0,1.0,86,0.00,,,1.75,WeatherCatV1.02B3,2013-11-28 01:06:00,
2013-11-27 20:11:00,37.0,33.2,29.56,NE,54,0.0,1.0,86,0.00,,,1.75,WeatherCatV1.02B3,2013-11-28 01:11:00,
2013-11-27 20:16:00,37.0,33.2,29.56,SSE,152,2.0,2.0,86,0.00,,,1.75,WeatherCatV1.02B3,2013-11-28 01:16:00,
2013-11-27 20:21:00,37.0,32.9,29.57,NNE,26,1.0,5.0,85,0.00,,,1.75,WeatherCatV1.02B3,2013-11-28 01:21:00,
2013-11-27 20:26:00,36.9,32.5,29.57,NNE,14,0.0,3.0,84,0.00,,,1.75,WeatherCatV1.02B3,2013-11-28 01:26:00,
2013-11-27 20:31:00,36.9,32.8,29.58,NNE,15,2.0,4.0,85,0.00,,,1.75,WeatherCatV1.02B3,2013-11-28 01:31:00,
2013-11-27 20:36:00,36.8,32.1,29.59,NNE,28,3.0,4.0,83,0.00,,,1.75,WeatherCatV1.02B3,2013-11-28 01:36:00,
2013-11-27 20:41:00,36.8,32.1,29.59,NNE,32,1.0,3.0,83,0.00,,,1.75,WeatherCatV1.02B3,2013-11-28 01:41:00,
2013-11-27 20:46:00,36.6,31.6,29.59,ENE,60,1.0,4.0,82,0.00,,,1.75,WeatherCatV1.02B3,2013-11-28 01:46:00,
2013-11-27 20:51:00,36.5,31.8,29.59,WNW,302,3.0,3.0,83,0.00,,,1.75,WeatherCatV1.02B3,2013-11-28 01:51:00,
2013-11-27 20:56:00,36.3,31.3,29.59,SSE,163,0.0,2.0,82,0.00,,,1.75,WeatherCatV1.02B3,2013-11-28 01:56:00,
2013-11-27 21:01:00,36.1,30.5,29.60,NE,51,1.0,9.0,80,0.00,,,1.75,WeatherCatV1.02B3,2013-11-28 02:01:00,
2013-11-27 21:06:00,36.1,29.9,29.60,NE,54,2.0,8.0,78,0.00,,,1.75,WeatherCatV1.02B3,2013-11-28 02:06:00,
2013-11-27 21:11:00,36.0,29.8,29.61,East,83,1.0,9.0,78,0.00,,,1.75,WeatherCatV1.02B3,2013-11-28 02:11:00,
2013-11-27 21:16:00,35.9,30.0,29.61,WNW,294,2.0,4.0,79,0.00,,,1.75,WeatherCatV1.02B3,2013-11-28 02:16:00,
2013-11-27 21:21:00,35.7,29.2,29.61,NNE,19,2.0,7.0,77,0.00,,,1.75,WeatherCatV1.02B3,2013-11-28 02:21:00,
2013-11-27 21:26:00,35.6,28.8,29.61,NE,56,1.0,8.0,76,0.00,,,1.75,WeatherCatV1.02B3,2013-11-28 02:26:00,
2013-11-27 21:31:00,35.4,28.9,29.62,NE,46,7.0,8.0,77,0.00,,,1.75,WeatherCatV1.02B3,2013-11-28 02:31:00,
2013-11-27 21:36:00,35.3,28.2,29.63,West,280,4.0,4.0,75,0.00,,,1.75,WeatherCatV1.02B3,2013-11-28 02:36:00,
2013-11-27 21:41:00,35.1,27.7,29.64,NE,43,0.0,4.0,74,0.00,,,1.75,WeatherCatV1.02B3,2013-11-28 02:41:00,
2013-11-27 21:46:00,35.0,27.6,29.64,ENE,75,3.0,4.0,74,0.00,,,1.75,WeatherCatV1.02B3,2013-11-28 02:46:00,
2013-11-27 21:51:00,35.0,27.9,29.64,East,81,0.0,3.0,75,0.00,,,1.75,WeatherCatV1.02B3,2013-11-28 02:51:00,
2013-11-27 21:56:00,34.8,27.7,29.65,NNE,28,4.0,5.0,75,0.00,,,1.75,WeatherCatV1.02B3,2013-11-28 02:56:00,
2013-11-27 22:01:00,34.7,27.3,29.65,NE,34,0.0,3.0,74,0.00,,,1.75,WeatherCatV1.02B3,2013-11-28 03:01:00,
2013-11-27 22:06:00,34.7,26.9,29.65,NNE,20,3.0,3.0,73,0.00,,,1.75,WeatherCatV1.02B3,2013-11-28 03:06:00,
2013-11-27 22:11:00,34.6,26.9,29.66,North,11,0.0,3.0,73,0.00,,,1.75,WeatherCatV1.02B3,2013-11-28 03:11:00,
2013-11-27 22:16:00,34.5,27.1,29.66,NNE,33,1.0,3.0,74,0.00,,,1.75,WeatherCatV1.02B3,2013-11-28 03:16:00,
2013-11-27 22:21:00,34.4,26.7,29.67,SE,129,1.0,2.0,73,0.00,,,1.75,WeatherCatV1.02B3,2013-11-28 03:21:00,
2013-11-27 22:26:00,34.4,26.7,29.68,SSE,168,1.0,3.0,73,0.00,,,1.75,WeatherCatV1.02B3,2013-11-28 03:26:00,
2013-11-27 22:31:00,34.3,26.2,29.68,ENE,73,4.0,4.0,72,0.00,,,1.75,WeatherCatV1.02B3,2013-11-28 03:31:00,
2013-11-27 22:37:00,34.1,26.0,29.69,NE,34,1.0,1.0,72,0.00,,,1.75,WeatherCatV1.02B3,2013-11-28 03:37:00,
2013-11-27 22:42:00,33.9,25.8,29.69,ESE,103,2.0,2.0,72,0.00,,,1.75,WeatherCatV1.02B3,2013-11-28 03:42:00,
2013-11-27 22:47:00,33.8,25.1,29.70,ENE,71,0.0,3.0,70,0.00,,,1.75,WeatherCatV1.02B3,2013-11-28 03:47:00,
2013-11-27 22:52:00,33.7,25.3,29.70,NNE,24,1.0,3.0,71,0.00,,,1.75,WeatherCatV1.02B3,2013-11-28 03:52:00,
2013-11-27 22:57:00,33.5,25.5,29.71,NE,46,0.0,2.0,72,0.00,,,1.75,WeatherCatV1.02B3,2013-11-28 03:57:00,
2013-11-27 23:02:00,33.5,25.1,29.72,NE,47,2.0,3.0,71,0.00,,,1.75,WeatherCatV1.02B3,2013-11-28 04:02:00,
2013-11-27 23:07:00,33.4,25.0,29.72,ENE,67,1.0,6.0,71,0.00,,,1.75,WeatherCatV1.02B3,2013-11-28 04:07:00,
2013-11-27 23:12:00,33.3,24.9,29.72,ENE,63,0.0,3.0,71,0.00,,,1.75,WeatherCatV1.02B3,2013-11-28 04:12:00,
2013-11-27 23:17:00,33.3,24.2,29.72,ENE,65,1.0,3.0,69,0.00,,,1.75,WeatherCatV1.02B3,2013-11-28 04:17:00,
2013-11-27 23:22:00,33.3,24.2,29.72,North,9,2.0,2.0,69,0.00,,,1.75,WeatherCatV1.02B3,2013-11-28 04:22:00,
2013-11-27 23:27:00,33.2,24.1,29.73,South,170,0.0,3.0,69,0.00,,,1.75,WeatherCatV1.02B3,2013-11-28 04:27:00,
2013-11-27 23:32:00,33.0,24.0,29.73,NNE,23,0.0,1.0,69,0.00,,,1.75,WeatherCatV1.02B3,2013-11-28 04:32:00,
2013-11-27 23:37:00,32.9,23.5,29.74,East,98,2.0,3.0,68,0.00,,,1.75,WeatherCatV1.02B3,2013-11-28 04:37:00,
2013-11-27 23:42:00,32.9,23.5,29.74,NE,35,0.0,2.0,68,0.00,,,1.75,WeatherCatV1.02B3,2013-11-28 04:42:00,
2013-11-27 23:47:00,32.8,23.8,29.74,NE,35,1.0,1.0,69,0.00,,,1.75,WeatherCatV1.02B3,2013-11-28 04:47:00,
2013-11-27 23:52:00,32.5,23.5,29.75,NE,36,0.0,1.0,69,0.00,,,1.75,WeatherCatV1.02B3,2013-11-28 04:52:00,
2013-11-27 23:57:00,32.3,23.3,29.75,East,99,0.0,4.0,69,0.00,,,1.75,WeatherCatV1.02B3,2013-11-28 04:57:00,